Waarnemingen

Advertentie
Mijn weer
Lille, Frankrijk (7015): temperatuur & dauwpunt: 18.08.2017 01:00:00 - 24.08.2017 01:00:00 (CEST)Lille, Frankrijk (7015): temperatuur 5cm: 18.08.2017 01:00:00 - 24.08.2017 01:00:00 (CEST)Lille, Frankrijk (7015): temperatuur -20cm & temperatuur -100cm: 18.08.2017 01:00:00 - 24.08.2017 01:00:00 (CEST)Lille, Frankrijk (7015): windsnelheid & windstoten: 18.08.2017 01:00:00 - 24.08.2017 01:00:00 (CEST)Lille, Frankrijk (7015): windrichting: 18.08.2017 01:00:00 - 24.08.2017 01:00:00 (CEST)Lille, Frankrijk (7015): luchtdruk: 18.08.2017 01:00:00 - 24.08.2017 01:00:00 (CEST)Lille, Frankrijk (7015): zicht: 18.08.2017 01:00:00 - 24.08.2017 01:00:00 (CEST)Lille, Frankrijk (7015): Zonneschijnduur: 18.08.2017 01:00:00 - 24.08.2017 01:00:00 (CEST)Lille, Frankrijk (7015): neerslag: 18.08.2017 01:00:00 - 24.08.2017 01:00:00 (CEST)
Datum & Tijd tt [°C] td [°C] tt 5cm [°C] tt -20cm [°C] tt -100cm [°C] ff [km/u] ff [kn] fx [km/u] fx [kn] dd ppp [hPa] vv [km] sd [min] rr [mm]
24.08.2017 01:00:00 15,3 13,1 14,6 19,5 17,6 12 6 16 9 ZW 1016,5 19 0 0,0
24.08.2017 00:00:00 16,0 13,3 15,4 19,8 17,6 12 7 24 13 ZW 1016,5 23 0 0,0
23.08.2017 23:00:00 16,6 13,3 16,0 20,2 17,6 18 10 27 15 WZW 1016,3 29 0 0,0
23.08.2017 22:00:00 17,3 13,2 16,8 20,6 17,6 18 10 31 17 W 1016,0 34 0 0,0
23.08.2017 21:00:00 18,2 12,9 17,7 21,0 17,6 18 10 36 20 W 1015,6 38 0 0,0
23.08.2017 20:00:00 19,6 13,8 19,6 21,3 17,6 22 12 36 20 W 1015,1 42 0 0,0
23.08.2017 19:00:00 20,8 14,7 21,4 21,4 17,6 23 13 37 20 W 1014,8 42 0 0,0
23.08.2017 18:00:00 21,7 15,8 23,1 21,4 17,6 28 15 45 24 W 1014,5 20 41 0,0
23.08.2017 17:00:00 23,7 16,7 25,5 21,2 17,6 33 18 47 26 W 1014,3 19 51 0,0
23.08.2017 16:00:00 24,4 17,4 26,1 20,9 17,6 37 20 50 27 W 1013,8 17 34 0,0
23.08.2017 15:00:00 28,0 16,0 30,7 20,4 17,6 16 9 26 14 ZZW 1013,1 33 60 0,0
23.08.2017 14:00:00 27,9 15,5 29,4 19,8 17,6 12 7 26 14 Z 1012,9 20 52 0,0
23.08.2017 13:00:00 26,4 15,1 29,5 19,1 17,6 14 7 23 12 ZZO 1013,4 19 60 0,0
23.08.2017 12:00:00 24,8 14,6 26,5 18,6 17,6 15 8 22 12 ZZO 1013,8 28 57 0,0
23.08.2017 11:00:00 22,9 14,2 24,9 18,2 17,6 14 8 23 12 ZZO 1014,0 20 58 0,0
23.08.2017 10:00:00 21,3 14,0 23,2 18,0 17,6 11 6 20 11 ZZO 1014,1 20 60 0,0
23.08.2017 09:00:00 19,3 13,9 18,6 18,0 17,6 9 5 14 7 ZO 1013,9 25 60 0,0
23.08.2017 08:00:00 16,8 14,1 15,2 18,2 17,6 7 4 9 5 OZO 1014,5 15 34 0,0
23.08.2017 07:00:00 15,8 13,5 15,1 18,4 17,6 6 3 10 5 OZO 1014,4 20 0 0,0
23.08.2017 06:00:00 16,1 13,4 15,3 18,5 17,6 5 3 8 5 ZO 1014,5 18 0 0,0
23.08.2017 05:00:00 16,1 13,4 15,3 18,8 17,6 7 4 11 6 O 1014,7 20 0 0,0
23.08.2017 04:00:00 16,7 13,4 15,9 19,0 17,6 4 2 10 5 OZO 1015,1 16 0 0,0
23.08.2017 03:00:00 17,2 13,7 16,2 19,2 17,6 5 3 9 5 O 1015,4 23 0 0,0
23.08.2017 02:00:00 18,0 14,1 17,0 19,5 17,6 7 4 11 6 O 1015,5 20 0 0,0
23.08.2017 01:00:00 19,5 14,3 18,6 19,7 17,6 9 5 11 6 ONO 1015,9 20 0 0,0
23.08.2017 00:00:00 20,3 14,6 18,7 19,9 17,6 5 3 8 4 NO 1016,3 36 0 0,0
22.08.2017 23:00:00 20,5 14,8 19,2 20,1 17,6 6 3 14 8 NNO 1016,8 37 0 0,0
22.08.2017 22:00:00 21,4 14,5 20,7 20,4 17,6 11 6 13 7 ONO 1016,8 33 0 0,0
22.08.2017 21:00:00 21,5 14,6 20,8 20,7 17,6 6 4 13 7 ONO 1017,1 33 0 0,0
22.08.2017 20:00:00 22,3 14,4 22,2 20,8 17,6 6 4 11 6 ONO 1017,1 42 0 0,0
22.08.2017 19:00:00 22,7 14,8 23,4 21,0 17,6 5 3 18 10 ZO 1017,4 46 0 0,0
22.08.2017 18:00:00 23,5 14,5 25,2 20,8 17,6 10 6 19 11 O 1017,5 20 55 0,0
22.08.2017 17:00:00 23,6 15,1 26,0 20,5 17,5 9 5 25 14 O 1018,4 43 39 0,0
22.08.2017 16:00:00 23,6 15,1 25,0 20,0 17,6 13 7 19 10 O 1018,9 20 44 0,0
22.08.2017 15:00:00 22,6 14,7 23,9 19,5 17,6 7 4 14 7 O 1019,7 20 19 0,0
22.08.2017 14:00:00 21,8 14,9 23,7 19,0 17,6 6 4 16 8 ZZW 1020,1 42 31 0,0
22.08.2017 13:00:00 20,6 14,9 21,9 18,5 17,6 5 3 11 6 WZW 1020,5 20 32 0,0
22.08.2017 12:00:00 19,5 15,2 20,4 18,2 17,6 0 0 11 6 N 1020,7 19 4 0,0
22.08.2017 11:00:00 17,7 15,3 18,5 18,0 17,6 5 3 10 5 ZZO 1021,0 17 0 0,0
22.08.2017 10:00:00 17,3 15,3 17,8 17,9 17,6 5 3 10 5 OZO 1020,9 17 0 0,0
22.08.2017 09:00:00 16,9 15,2 16,9 17,8 17,6 5 3 8 5 ZZO 1020,8 12 0 0,0
22.08.2017 08:00:00 16,5 15,0 16,3 17,8 17,6 6 3 10 5 OZO 1020,7 9 0 0,0
22.08.2017 07:00:00 16,3 15,0 16,2 17,9 17,6 4 2 13 7 ZO 1020,6 7 0 0,0
22.08.2017 06:00:00 16,4 14,9 16,4 17,9 17,6 5 3 8 5 OZO 1020,8 14 0 0,0
22.08.2017 05:00:00 16,5 14,9 16,4 18,0 17,6 4 2 6 3 OZO 1020,9 18 0 0,0
22.08.2017 04:00:00 16,6 14,8 16,5 18,1 17,6 4 2 4 2 O 1021,3 17 0 0,0
22.08.2017 03:00:00 16,7 14,9 16,6 18,2 17,6 3 2 6 3 OZO 1021,1 18 0 0,0
22.08.2017 02:00:00 16,9 14,9 16,8 18,2 17,6 3 2 11 6 ZO 1021,4 17 0 0,0
22.08.2017 01:00:00 17,0 14,8 17,0 18,3 17,6 6 3 10 5 ZO 1021,5 30 0 0,0
22.08.2017 00:00:00 17,0 14,8 17,0 18,4 17,6 6 4 9 5 OZO 1021,7 20 0 0,0
21.08.2017 23:00:00 17,1 14,9 17,0 18,5 17,6 6 3 13 7 ZO 1021,9 20 0 0,0
21.08.2017 22:00:00 17,2 14,8 17,1 18,6 17,6 9 5 13 7 OZO 1021,9 36 0 0,0
21.08.2017 21:00:00 17,5 14,6 17,4 18,8 17,6 6 3 11 6 ZO 1021,6 32 0 0,0
21.08.2017 20:00:00 18,0 14,1 18,2 18,8 17,6 6 4 15 8 ZZO 1021,6 39 0 0,0
21.08.2017 19:00:00 18,0 14,3 18,3 18,9 17,6 8 4 18 10 ZO 1021,6 49 0 0,0
21.08.2017 18:00:00 18,3 14,6 19,3 18,8 17,6 13 7 23 12 ZZO 1021,9 37 0 0,0
21.08.2017 17:00:00 18,1 14,4 18,6 18,6 17,6 15 8 22 12 Z 1021,8 19 0 0,0
21.08.2017 16:00:00 18,0 13,7 19,0 18,5 17,6 13 7 26 14 ZZO 1022,3 20 0 0,0
21.08.2017 15:00:00 17,8 13,3 18,8 18,3 17,6 14 8 24 13 ZZO 1022,4 34 0 0,0
21.08.2017 14:00:00 17,9 13,6 18,9 18,1 17,6 16 8 26 14 ZO 1022,8 28 0 0,0
21.08.2017 13:00:00 18,0 12,7 20,0 17,7 17,6 18 10 30 16 ZZO 1023,0 43 3 0,0
21.08.2017 12:00:00 18,0 12,0 18,4 17,4 17,7 17 9 29 15 ZO 1023,1 20 2 0,0
21.08.2017 11:00:00 16,3 12,6 16,0 17,1 17,7 14 8 22 12 OZO 1023,3 20 0 0,0
21.08.2017 10:00:00 15,1 13,1 14,5 17,1 17,6 10 5 15 8 OZO 1023,7 48 0 0,0
21.08.2017 09:00:00 13,9 12,8 13,5 17,1 17,7 9 5 17 9 OZO 1023,8 39 0 0,0
21.08.2017 08:00:00 13,4 12,6 13,2 17,2 17,7 9 5 14 8 OZO 1023,4 17 0 0,0
21.08.2017 07:00:00 13,4 12,8 13,2 17,2 17,7 9 5 12 7 O 1023,4 13 0 0,0
21.08.2017 06:00:00 13,6 12,8 13,2 17,4 17,7 6 3 8 4 O 1023,4 6 0 0,2
21.08.2017 05:00:00 13,7 12,3 13,1 17,5 17,7 2 1 8 5 ZZO 1023,9 3,9 0 0,8
21.08.2017 04:00:00 14,3 12,0 13,2 17,6 17,7 6 3 7 4 ZW 1024,4 9 0 0,2
21.08.2017 03:00:00 14,5 11,6 13,3 17,7 17,7 4 2 5 3 ZZO 1024,1 20 0 0,2
21.08.2017 02:00:00 15,0 11,0 13,7 17,9 17,7 0 0 5 3 N 1024,7 42 0 0,0
21.08.2017 01:00:00 15,4 10,2 14,7 18,0 17,7 4 2 6 4 W 1024,9 52 0 0,0
21.08.2017 00:00:00 16,0 10,1 15,4 18,2 17,7 6 4 9 5 ZZW 1024,5 56 0 0,0
20.08.2017 23:00:00 16,2 9,4 15,6 18,5 17,7 5 3 17 9 W 1024,6 60 0 0,0
20.08.2017 22:00:00 16,8 9,2 16,5 18,8 17,7 16 9 26 14 W 1025,0 60 0 0,0
20.08.2017 21:00:00 17,5 8,9 17,1 19,1 17,7 12 6 18 10 W 1024,5 60 0 0,0
20.08.2017 20:00:00 18,6 8,3 18,1 19,3 17,7 16 9 26 14 W 1024,2 60 21 0,0
20.08.2017 19:00:00 20,2 7,9 22,4 19,3 17,7 16 9 32 17 W 1024,2 32 60 0,0
20.08.2017 18:00:00 20,8 7,4 20,4 19,2 17,7 16 9 35 19 W 1024,6 20 52 0,0
20.08.2017 17:00:00 21,4 7,2 21,3 18,9 17,7 24 13 35 19 W 1024,7 30 49 0,0
20.08.2017 16:00:00 21,4 8,0 21,5 18,4 17,7 21 11 35 19 WZW 1024,6 34 45 0,0
20.08.2017 15:00:00 21,5 8,0 24,7 17,8 17,7 21 11 34 18 W 1024,8 20 60 0,0
20.08.2017 14:00:00 20,2 8,2 20,9 17,3 17,7 21 11 29 16 W 1024,9 47 37 0,0
20.08.2017 13:00:00 19,1 8,4 20,0 16,8 17,7 17 9 28 15 W 1024,8 52 31 0,0
20.08.2017 12:00:00 18,8 9,3 21,2 16,3 17,7 17 9 33 18 W 1024,7 20 56 0,0
20.08.2017 11:00:00 17,4 10,3 20,2 16,0 17,7 18 10 25 14 WZW 1024,7 20 60 0,0
20.08.2017 10:00:00 15,7 10,7 17,2 15,7 17,7 14 8 21 12 W 1024,4 19 60 0,0
20.08.2017 09:00:00 13,7 10,1 13,3 15,7 17,7 11 6 16 9 WZW 1024,1 20 60 0,0
20.08.2017 08:00:00 11,7 9,4 10,9 15,9 17,7 3 2 7 4 Z 1023,5 18 43 0,0
20.08.2017 07:00:00 11,2 8,8 10,2 16,1 17,7 8 4 11 6 WZW 1022,9 31 0 0,0
20.08.2017 06:00:00 11,6 9,2 10,7 16,3 17,7 10 5 14 8 ZW 1022,7 20 0 0,0
20.08.2017 05:00:00 12,1 10,0 10,9 16,5 17,8 10 5 16 9 WZW 1022,5 19 0 0,0
20.08.2017 04:00:00 11,9 10,5 11,1 16,8 17,8 12 7 18 10 ZW 1022,1 15 0 0,0
20.08.2017 03:00:00 12,9 11,0 12,2 17,0 17,8 14 7 21 11 WZW 1021,9 15 0 0,0
20.08.2017 02:00:00 13,3 11,2 12,5 17,2 17,8 10 6 16 9 ZW 1021,8 16 0 0,0
20.08.2017 01:00:00 13,7 11,2 12,9 17,4 17,8 12 6 23 12 WZW 1021,7 16 0 0,0
20.08.2017 00:00:00 14,2 11,2 13,3 17,7 17,8 16 8 22 12 WZW 1021,6 17 0 0,0
19.08.2017 23:00:00 14,8 11,0 14,0 18,0 17,8 11 6 26 14 WZW 1021,4 18 0 0,0
19.08.2017 22:00:00 15,6 10,6 15,0 18,3 17,8 16 9 34 18 WZW 1021,2 20 0 0,0
19.08.2017 21:00:00 16,5 10,3 16,0 18,6 17,8 13 7 39 21 WZW 1020,6 47 8 0,0
19.08.2017 20:00:00 17,9 9,5 18,3 18,8 17,8 26 14 46 25 W 1020,3 25 55 0,0
19.08.2017 19:00:00 19,3 10,6 18,3 18,9 17,8 29 16 48 26 W 1019,9 19 32 0,0
19.08.2017 18:00:00 19,3 8,6 19,3 18,9 17,8 29 15 48 26 W 1019,8 28 22 0,0
19.08.2017 17:00:00 21,0 8,3 21,0 18,8 17,8 34 19 50 27 W 1019,5 38 45 0,0
19.08.2017 16:00:00 21,2 8,8 21,6 18,4 17,8 32 18 49 26 WZW 1019,0 28 52 0,0
19.08.2017 15:00:00 21,0 9,3 20,7 17,9 17,8 34 18 48 26 WZW 1018,6 19 47 0,0
19.08.2017 14:00:00 20,0 11,0 18,7 17,6 17,8 24 13 41 22 W 1018,2 46 26 0,0
19.08.2017 13:00:00 18,1 12,8 17,7 17,2 17,8 22 12 33 18 WZW 1017,9 51 14 0,0
19.08.2017 12:00:00 17,0 12,5 17,8 16,8 17,8 16 9 31 17 WZW 1017,9 36 30 0,0
19.08.2017 11:00:00 17,3 13,0 17,0 16,4 17,8 18 10 38 20 ZW 1017,7 27 49 0,0
19.08.2017 10:00:00 15,0 12,9 14,7 16,2 17,8 21 11 30 16 ZW 1017,5 20 40 0,0
19.08.2017 09:00:00 14,1 12,5 12,5 16,1 17,8 18 10 27 15 ZZW 1017,0 19 42 0,0
19.08.2017 08:00:00 12,9 11,6 12,2 16,2 17,8 18 10 50 27 ZW 1016,6 17 0 2,6
19.08.2017 07:00:00 12,9 11,3 12,2 16,3 17,8 21 12 38 20 ZW 1016,0 4,2 0 0,4
19.08.2017 06:00:00 12,8 10,2 11,8 16,5 17,8 19 10 29 16 ZZW 1015,3 20 0 0,0
19.08.2017 05:00:00 12,5 9,7 11,8 16,7 17,8 18 10 28 15 ZZW 1015,2 41 0 0,0
19.08.2017 04:00:00 12,6 9,6 11,8 16,9 17,8 16 9 33 18 ZZW 1015,2 41 0 0,0
19.08.2017 03:00:00 12,6 9,8 12,0 17,2 17,8 15 8 26 14 ZZW 1015,3 37 0 0,0
19.08.2017 02:00:00 12,7 10,1 12,0 17,5 17,8 14 7 19 10 ZZW 1015,7 20 0 0,0
19.08.2017 01:00:00 13,3 10,3 12,5 17,8 17,8 13 7 19 10 ZZW 1015,6 20 0 0,0
19.08.2017 00:00:00 13,7 10,5 12,9 18,0 17,8 12 7 19 10 ZZW 1015,5 19 0 0,0
18.08.2017 23:00:00 14,9 10,5 14,2 18,4 17,8 15 8 24 13 ZW 1015,1 47 0 0,0
18.08.2017 22:00:00 15,6 9,9 14,9 18,7 17,8 17 9 44 24 WZW 1015,0 19 0 0,0
18.08.2017 21:00:00 16,9 9,8 16,1 19,1 17,8 19 10 45 24 WZW 1014,4 60 14 0,0
18.08.2017 20:00:00 18,6 8,8 18,7 19,3 17,8 31 17 61 33 W 1013,9 11 56 0,0
18.08.2017 19:00:00 19,3 9,5 17,8 19,5 17,8 31 17 58 31 WZW 1013,7 39 27 0,0
18.08.2017 18:00:00 19,3 9,8 19,4 19,7 17,8 27 15 53 28 W 1013,1 29 0 0,0
18.08.2017 17:00:00 20,8 11,1 21,5 19,6 17,8 33 18 46 25 WZW 1012,6 34 24 0,0
18.08.2017 16:00:00 21,4 13,1 22,3 19,3 17,8 30 16 47 26 W 1012,2 34 49 0,0
18.08.2017 15:00:00 21,4 13,1 21,0 19,0 17,8 26 14 44 24 W 1012,2 20 28 0,0
18.08.2017 14:00:00 20,3 13,3 20,8 18,8 17,8 25 13 41 22 W 1012,6 19 0 0,0
18.08.2017 13:00:00 19,6 14,4 19,5 18,6 17,8 25 13 39 21 WZW 1012,6 19 0 0,0
18.08.2017 12:00:00 18,7 15,2 16,9 18,4 17,8 24 13 37 20 W 1012,7 20 0 0,0
18.08.2017 11:00:00 19,3 16,7 18,1 18,3 17,8 22 12 33 18 ZW 1012,5 20 0 1,6
18.08.2017 10:00:00 18,6 17,4 17,9 18,2 17,8 21 11 35 19 ZZW 1012,5 15 0 0,0
18.08.2017 09:00:00 18,0 17,4 17,1 18,1 17,8 18 10 26 14 Z 1012,3 6 0 1,2
18.08.2017 08:00:00 17,4 16,8 16,6 18,2 17,8 7 4 11 6 ZZO 1012,9 4,0 0 1,2
18.08.2017 07:00:00 17,3 15,6 16,7 18,2 17,8 4 2 9 5 ZZW 1013,4 15 0 0,0
18.08.2017 06:00:00 17,3 14,8 17,0 18,3 17,8 4 2 7 4 W 1013,0 41 0 0,0
18.08.2017 05:00:00 17,3 14,6 16,8 18,3 17,8 5 3 11 6 WZW 1013,4 42 0 0,0
18.08.2017 04:00:00 17,3 14,8 16,6 18,4 17,8 3 2 6 3 ZZO 1013,8 44 0 0,0
18.08.2017 03:00:00 16,8 14,3 16,6 18,4 17,8 0 0 6 4 N 1014,0 47 0 0,0
18.08.2017 02:00:00 16,8 14,3 16,6 18,6 17,8 5 3 7 4 ZZO 1014,3 42 0 0,0
18.08.2017 01:00:00 17,0 14,3 16,3 18,7 17,8 5 3 11 6 Z 1014,9 44 0 0,0

tt = temperatuur
td = dauwpunt
tt 5cm = temperatuur 5cm
tt -20cm = temperatuur -20cm
tt -100cm = temperatuur -100cm
ff = windsnelheid
fx = windstoten
dd = windrichting
ppp = luchtdruk
vv = zicht
sd = Zonneschijnduur
rr = neerslag

Weerstations in de omgeving